www.pogodaiklimat.ru

Погода и климат >> Архив погоды >> Аргентина >> Ресистенсия


ПОГОДА в Ресистенсии

  • Прогноз погоды в Ресистенсии
  • Монитор погоды в Ресистенсии

АРХИВ ПОГОДЫ в Ресистенсии

Время (UTC), дата Ветер
(напр.,м/с)
 
Видим.   Явления Облачность Т
(С)
Тd
(С)
f
(%)
Тe
(С)
Тes
(С)
Комфортность P
(гПа)
Po
(гПа)
Тmin
(С)
Tmax
(С)
R
(мм)
R24
(мм)
S
(см)
03 12.02 Ю 3 8000 м гроза, ливневой дождь 9/5 600 м
[Cb cap As op Cs]
+23.5 +22.3 93 +31 +31 очень
душно
1010.9 1005.0
06 12.02 ЮВ 3 15 км зарница {гроза} 10/0
[Ac As Cs]
+23.1 +22.2 95 +32 +32 очень
душно
1012.6 1006.6 9
09 12.02 Ю 4 15 км зарница 10/5 450 м
[St Ac As]
+22.2 +19.7 86 +28 +28 душно 1015.3 1009.2
12 12.02 Ю 5 6000 м слаб. дождь 10/5 540 м
[Sc As op]
+21.7 +20.2 91 +27 +28 душно 1020.1 1014.0 +20.9 +23.8 4
15 12.02 Ю 5 15 км 10/9 540 м
[Sc Ac As]
+22.5 +18.4 78 +28 +28 душно 1021.9 1015.8
18 12.02 Ю 7 15 км 9/4 750 м
[Sc Ac As Cs]
+25.3 +18.3 65 +30 +32 душно 1021.0 1014.9 0.0
21 12.02 Ю 6 15 км 3/3 900 м
[Cu hum Ci fib]
+24.0 +15.7 60 +27 +28 жарко 1019.6 1013.6
00 13.02 Ю 3 15 км 3/0
[Ac trans]
+20.6 +16.0 75 +24 +24 комфорт 1019.4 1013.3 +20.5 +25.6
03 13.02 Ю 3 15 км ясно +18.9 +15.7 82 +20 +20 1021.6 1015.6
06 13.02 Ю 2 15 км ясно +17.3 +15.8 91 +18 +18 1019.0 1012.9
09 13.02 Ю 2 15 км ясно +15.9 +15.0 94 +16 +16 1018.3 1012.2
12 13.02 ЮВ 3 10 км дым ясно +20.1 +14.7 71 +23 +28 комфорт 1018.5 1012.4 +15.4 +20.6 0.0
15 13.02 Ю 3 15 км ясно +24.8 +15.9 58 +28 +44 жарко 1017.2 1011.0
18 13.02 Ю 3 15 км 1/0
[Ci fib]
+27.5 +17.7 55 +32 +44 очень
душно
1014.2 1008.1
21 13.02 ЮВ 3 15 км 1/0
[Ci sp]
+27.0 +16.5 53 +31 +33 душно 1012.4 1006.2
00 14.02 ЮВ 2 15 км ясно +21.9 +17.9 78 +27 +27 душно 1013.1 1007.0 +20.0 +28.0
03 14.02 Ю 2 15 км ясно +19.5 +17.4 88 +22 +22 комфорт 1013.9 1007.8
06 14.02 ЮЗ 2 15 км ясно +18.5 +17.2 92 +20 +20 1013.2 1007.2
09 14.02 ЮЗ 2 15 км 8/0
[Ac As]
+19.0 +18.0 94 +21 +21 комфорт 1013.5 1007.4
12 14.02 Ю 2 15 км 9/0
[Ac und]
+22.6 +18.9 80 +28 +31 душно 1013.9 1007.8 +17.9 +22.6
15 14.02 СВ 2 15 км 9/0
[Ac As]
+27.4 +18.1 57 +32 +39 очень
душно
1012.8 1006.8
18 14.02 ЮЗ 4 15 км 9/1 750 м
[Cu hum Ac As]
+28.5 +18.5 55 +34 +37 очень
душно
1011.6 1005.6
21 14.02 Ю 5 15 км 3/3 750 м
[Sc Ac As]
+27.8 +18.9 58 +33 +34 очень
душно
1010.8 1004.8
00 15.02 Ю 2 15 км ясно +23.0 +19.9 83 +30 +30 очень
душно
1011.6 1005.6 +22.5 +29.8
03 15.02 ЮЗ 2 15 км ясно +21.2 +20.1 93 +26 +26 душно 1012.4 1006.4
06 15.02 ЮЗ 3 15 км 8/0
[Ac As]
+21.2 +20.1 93 +26 +26 душно 1011.3 1005.3
09 15.02 ЮЗ 2 15 км 6/0
[Ac und]
+19.8 +19.0 95 +23 +23 комфорт 1011.3 1005.3
12 15.02 Ю 4 15 км 4/3 300 м
[St Ac As]
+23.7 +20.4 82 +29 +32 душно 1012.2 1006.2 +19.2 +23.7
15 15.02 Ю 6 15 км 5/5 700 м
[Sc diur, vesp]
+27.0 +17.8 57 +31 +35 душно 1012.3 1006.2
18 15.02 Ю 6 15 км 5/4 900 м
[Sc diur, vesp Ac As]
+29.0 +17.6 50 +33 +37 очень
душно
1011.7 1005.7
21 15.02 Ю 5 15 км 3/3 1200 м
[Cu hum]
+28.0 +16.0 48 +31 +32 душно 1010.5 1004.5
00 16.02 ЮЗ 2 15 км ясно +22.7 +18.1 75 +28 +28 душно 1011.2 1005.2 +22.6 +29.2
03 16.02 З 3 15 км 3/3 900 м
[Sc]
+20.0 +18.4 91 +23 +23 комфорт 1012.3 1006.2
06 16.02 Ю 3 15 км 6/0
[Ac As]
+22.0 +19.2 84 +27 +27 душно 1012.4 1006.4
09 16.02 Ю 3 15 км ясно +20.0 +19.1 95 +24 +24 комфорт 1012.1 1006.1
12 16.02 Ю 5 15 км ясно +23.6 +18.9 75 +28 +32 душно 1013.0 1007.0 +19.4 +23.6
15 16.02 Ю 4 15 км 3/3 900 м
[Cu hum]
+27.6 +19.9 63 +34 +44 очень
душно
1012.5 1006.5
18 16.02 Ю 4 15 км 5/5 960 м
[Cu hum]
+29.0 +19.5 57 +35 +41 очень
душно
1011.2 1005.2
21 16.02 Ю 5 15 км 6/6 960 м
[Sc]
+28.0 +20.0 62 +34 +35 очень
душно
1009.8 1003.8
00 17.02 Ю 2 15 км 3/3 1050 м
[Sc]
+25.0 +20.8 78 +31 +31 очень
душно
1010.8 1004.8 +23.5 +30.0
03 17.02 Ю 2 15 км ясно +23.2 +21.1 88 +31 +31 очень
душно
1011.2 1005.2
06 17.02 Ю 2 15 км ясно +21.9 +20.8 93 +28 +28 душно 1010.2 1004.2
09 17.02 Ю 3 15 км ясно +21.0 +19.4 91 +26 +26 душно 1009.9 1003.8
12 17.02 ЮВ 3 15 км ясно +24.8 +21.2 80 +31 +37 очень
душно
1011.4 1005.4 +20.9 +25.0
15 17.02 ЮВ 2 15 км 3/3 900 м
[Cu hum]
+29.3 +22.3 66 +38 +52 опасность
солнечного
удара
1011.1 1005.0
18 17.02 Ю 4 15 км 4/4 1200 м
[Cu hum]
+31.3 +22.0 58 +40 +47 очень
душно
1009.2 1003.3
21 17.02 ЮВ 2 15 км 1/1 1200 м
[Cu hum]
+30.5 +21.7 59 +39 +40 очень
душно
1007.7 1001.7
00 18.02 ЮВ 1 15 км ясно +26.5 +21.8 75 +34 +34 очень
душно
1008.7 1002.6 +24.7 +32.3
03 18.02 Ю 1 15 км ясно +24.7 +21.4 82 +31 +31 очень
душно
1009.2 1003.3
06 18.02 В 3 15 км ясно +24.1 +20.8 82 +30 +30 очень
душно
1008.0 1002.1
09 18.02 В 2 15 км ясно +22.9 +20.0 84 +30 +30 очень
душно
1007.7 1001.8
12 18.02 СВ 2 15 км ясно +26.3 +20.9 72 +33 +39 очень
душно
1009.2 1003.2 +21.5 +26.7
15 18.02 В 3 15 км 4/4 450 м
[Cu hum]
+30.6 +22.7 63 +40 +51 опасность
солнечного
удара
1008.9 1003.0
18 18.02 ЮВ 2 13 км 4/4 1200 м
[Cu med, cong]
+31.7 +20.4 51 +38 +48 очень
душно
1006.9 1001.0
21 18.02 Ю 3 15 км 1/1 1350 м
[Cu med, cong]
+31.9 +21.4 54 +40 +42 очень
душно
1005.4 999.4
00 19.02 ЮВ 1 15 км ясно +26.6 +22.0 76 +34 +34 очень
душно
1006.8 1000.9 +26.2 +33.1

 

Местоположение метеостанции Ресистенсия (Аргентина): широта -27.45 долгота -59.05 высота над уровнем моря 52 м.

В архиве по умолчанию представлена погода в Ресистенсии за последнюю неделю. Архивные данные за месяц целиком и за предыдущие месяцы, начиная с января 2011 года, Вы можете получить, выбрав интересующий диапазон дат из раскрывающегося списка и нажав кнопку "Ввод!".


*Определитесь, кто Вы:
робот инопланетянин человек

Внимание! Время в таблицах - всемирное. Для получения местного времени необходимо прибавить поправку, которая равна -3 ч.

Смотрите также архив погоды в соседних городах и на ближайших метеорологических станциях:

Погода в Корриентесе (Аргентина) (29 км)
Погода в Пиларе (Парагвай) (99 км)
Погода в Формосе (Аргентина) (161 км)
Погода в Пресиденсиа-Роке-Саэнс-Пеньи (Аргентина) (163 км)
Погода в Реконкисте (Аргентина) (203 км)
Погода в Сан Хуан Батистута (Парагвай) (208 км)
Погода в Куйкуйо (Парагвай) (247 км)
Погода в Парагуари (Парагвай) (278 км)
Погода в Асунсьоне (Парагвай) (289 км)
Погода в Грал Бругуез (Парагвай) (300 км)

Пояснения к столбцам:

Ветер - указаны скорость ветра в м/с - средняя за 10 мин, порывы в срок и между сроками (в фигурных скобках) и направление, откуда дует ветер: С - северный, СВ - северо-восточный, В - восточный, ЮВ - юго-восточный, Ю - южный, ЮЗ - юго-западный, З - западный, СЗ - северо-западный.
Видимость - горизонтальная дальность видимости в метрах или километрах. При видимости от 1 до 10 км при отсутствии осадков обычно наблюдается дымка, при ухудшении видимости до 1 км и менее - туман. В сухую погоду видимость может ухудшаться дымом, пылью или мглою.
Явления - указаны атмосферные явления, наблюдавшиеся в срок или в последний час перед сроком; фигурными скобками обозначены явления, наблюдавшиеся между сроками (за 1-3 часа до срока); квадратными скобками обозначены град или гололедные отложения с указанием их диаметра в мм.
Облачность - указаны через наклонную черту общая и нижняя облачность в баллах и высота нижней границы облаков в метрах; квадратными скобками обозначены формы облаков: Ci - перистые, Cs - перисто-слоистые, Cc - перисто-кучевые, Ac - высококучевые, As - высокослоистые, Sc - слоисто-кучевые, Ns - слоисто-дождевые, Cu - кучевые, Cb - кучево-дождевые. Подробнее классификацию облаков см. в Атласе облаков (PDF).
T - Температура воздуха - температура, измеренная на высоте 2 м над землей.
Td - Температура точки росы - температура, при понижении до которой содержащийся в воздухе водяной пар достигнет насыщения.
f - Относительная влажность воздуха - влажноcть воздуха, измеренная на высоте 2 м над землей.
Te - Эффективная температура - температура, которую ощущает одетый по сезону человек в тени. Характеристика душности погоды. При расчете учитывается влияние влажности воздуха и скорости ветра на теплоощущения человека.
Tes - Эффективная температура на солнце - температура, которую ощущает человек, с поправкой на солнечный нагрев. Характеристика знойности погоды. Зависит от высоты солнца над горизонтом, облачности и скорости ветра. Ночью, в пасмурную погоду, а также при ветре 12 м/с и более поправка равна нулю.
P - Атмосферное давление - приведенное к уровню моря атмосферное давление.
Po - Атмосферное давление - измеренное на уровне метеостанции атмосферное давление.
Tmin - Минимальная температура - минимум температуры воздуха на высоте 2 м над землей.
Tmax - Максимальная температура - максимум температуры воздуха на высоте 2 м над землей.
R - Количество осадков - Количество выпавших осадков за период времени, мм. При наведении курсора мыши на число - период времени, за который выпало указанное количество осадков.
R24 - Количество осадков - Количество выпавших осадков за 24 часа, мм.
S - Снежный покров - Высота снежного покрова, см. При наведении курсора мыши на число - состояние снежного покрова и степень покрытия местности в баллах.